Clayton Lake, ME

8:19 AM EDT on May 25, 2017 (GMT -0400)
Clayton Lake

Weather History for K40B - November, 2011

Change the Weather History Date:

Tuesday, November 8, 2011

  Actual Average Record
Temperature  
Mean Temperature 42 °F -  
Max Temperature 55 °F 36 °F 60 °F (2016)
Min Temperature 31 °F 22 °F 9 °F (2002)
Degree Days  
Heating Degree Days 22    
Moisture  
Dew Point 31 °F    
Average Humidity 56    
Maximum Humidity 92    
Minimum Humidity 34    
Precipitation  
Precipitation 0.01 in - - ()
Sea Level Pressure  
Sea Level Pressure 30.14 in    
Wind  
Wind Speed 2 mph (SW)    
Max Wind Speed 13 mph    
Max Gust Speed 22 mph    
Averages and records for this station are not official NWS values.
T = Trace of Precipitation, MM = Missing Value Source: NWS Daily Summary

Daily Weather History Graph

Daily Weather History Graph

Search for Another Location

Airport or City:

Trip Planner

Search our weather history database for the weather conditions in past years. The results will help you decide how hot, cold, wet, or windy it might be!

Date:

Astronomy

Nov. 08, 2011 Rise Set
Actual Time 6:29 AM EST 4:13 PM EST
Civil Twilight 5:57 AM EST 4:45 PM EST
Nautical Twilight 5:21 AM EST 5:21 PM EST
Astronomical Twilight 4:46 AM EST 5:56 PM EST
Moon 2:54 PM EST (11/8) 4:21 AM EST (11/8)
Length of Visible Light 10h 47m
Length of Day
9h 43m
Waxing Gibbous, 96% of the Moon is Illuminated
Nov 8
Waxing Gibbous
Nov 10
Full
Nov 18
Last Quarter
Nov 25
New
Dec 2
First Quarter

Hourly Weather History & Observations

Time (EST) Temp. Windchill Dew Point Humidity Pressure Visibility Wind Dir Wind Speed Gust Speed Precip Events Conditions
12:25 AM 39.4 °F - 37.2 °F 92% 30.03 in - Calm Calm - N/A   Unknown
1:25 AM 37.2 °F - - N/A% 30.04 in - Calm Calm - N/A   Unknown
2:25 AM 35.8 °F - - N/A% 30.07 in - Calm Calm - N/A   Unknown
3:25 AM 34.7 °F - - N/A% 30.07 in - Calm Calm - 0.00 in   Unknown
4:25 AM 34.7 °F - - N/A% 30.09 in - Calm Calm - N/A   Unknown
5:25 AM 32.9 °F - - N/A% 30.10 in - Calm Calm - N/A   Unknown
6:25 AM 31.8 °F - - N/A% 30.11 in - Variable 2.3 mph - N/A   Unknown
7:25 AM 33.4 °F - - N/A% 30.13 in - Calm Calm - N/A   Unknown
8:25 AM 43.5 °F 40.9 °F 33.4 °F 68% 30.14 in - Variable 4.6 mph 12.7 mph 0.01 in   Unknown
9:25 AM 48.6 °F - 31.8 °F 52% 30.14 in - Variable 4.6 mph 13.8 mph N/A   Unknown
10:25 AM 51.6 °F - 26.8 °F 38% 30.15 in - SW 12.7 mph 20.7 mph N/A   Unknown
11:25 AM 52.5 °F - 28.8 °F 40% 30.14 in - SSW 8.1 mph 16.1 mph N/A   Unknown
12:25 PM 54.0 °F - 26.8 °F 35% 30.14 in - SW 9.2 mph 21.9 mph N/A   Unknown
1:25 PM 54.9 °F - 27.1 °F 34% 30.13 in - Variable 6.9 mph 20.7 mph N/A   Unknown
2:25 PM 54.3 °F - 27.3 °F 35% 30.13 in - Variable 4.6 mph 15.0 mph N/A   Unknown
3:25 PM 52.2 °F - 27.9 °F 39% 30.14 in - Variable 5.8 mph 13.8 mph N/A   Unknown
4:25 PM 48.0 °F - 28.8 °F 47% 30.16 in - Variable 4.6 mph - N/A   Unknown
5:25 PM 41.2 °F - 32.5 °F 71% 30.18 in - Calm Calm - N/A   Unknown
6:25 PM 43.2 °F - 30.7 °F 62% 30.19 in - Calm Calm - 0.00 in   Unknown
7:25 PM 42.8 °F - 32.0 °F 66% 30.19 in - Calm Calm - N/A   Unknown
8:25 PM 44.2 °F - 32.2 °F 63% 30.20 in - Calm Calm - 0.00 in   Unknown
9:25 PM 44.8 °F - 31.3 °F 59% 30.22 in - Calm Calm - N/A   Unknown
10:25 PM 42.4 °F - 34.2 °F 72% 30.21 in - Calm Calm - N/A   Unknown
11:25 PM 42.3 °F - 36.0 °F 78% 30.21 in - Calm Calm - N/A   Unknown